[[{"header":{"parameterUnit":"m.s-1","parameterCategory":2,"la1":30.2991,"la2":30.254,"lo1":-89.0895,"lo2":-89.0444,"dy":0.0017,"dx":0.0017,"nx":28,"ny":28,"refTime":"2025-01-22T09:00:00:Z","depth":"0","parameterNumber":2,"parameterNumberName":"U-component_of_CURRENTS"},"data":[0,0,0,0,0,0,0,0,0,0,0,0,0,0,0,0,0,0,0,0,0,0,0,0,0,0,0,0,0,0,0,0,0,0,0,0,0,0,0,0,0,0,0,0,0,0,0,0,0,0,0,0,0,0,0,0,0,0,0.2219,0.222,0,0.2306,0.2306,0.2307,0.2353,0.2353,0.2354,0.2354,0.2377,0.2377,0.2378,0,0,0,0,0,0,0,0,0,0,0,0,0,0.2301,0.2297,0.2219,0.222,0.2222,0.2306,0.2306,0.2307,0.2352,0.2353,0.2354,0.2354,0.2377,0.2377,0.2378,0,0,0,0,0,0,0,0,0,0,0,0,0,0.2309,0.2296,0.2218,0.2258,0.2263,0.2305,0.2306,0.2307,0.2352,0.2353,0.2354,0.2355,0.2377,0.2377,0.2378,0.2363,0,0,0.2378,0.2378,0,0,0,0,0,0,0,0,0.2308,0.2305,0.2251,0.2255,0.2261,0.2323,0.2344,0.2325,0.2352,0.2313,0.2354,0.2355,0.2356,0.2358,0.2367,0.2364,0.2365,0.2378,0.2378,0.2378,0.2378,0,0,0,0,0,0,0,0.2307,0.2303,0.2248,0.2252,0.2259,0.2344,0.2343,0.2342,0.2324,0.2317,0.2321,0.2339,0.2358,0.2366,0.2367,0.2366,0.2378,0.2378,0.2379,0.2379,0.2415,0.2416,0,0,0,0,0,0,0.2293,0.23,0.2245,0.2251,0.2293,0.2341,0.234,0.2299,0.2326,0.2333,0.2338,0.2341,0.2366,0.2367,0.2368,0.2402,0.2378,0.2379,0.2379,0.2415,0.2416,0.2417,0,0,0,0,0,0,0.2294,0.2285,0.2242,0.2287,0.2287,0.2338,0.2291,0.23,0.2311,0.2344,0.2348,0.2342,0.2366,0.2368,0.2376,0.2401,0.2379,0.2379,0.2414,0.2415,0.2416,0.2437,0,0,0,0,0,0,0.2294,0.2283,0.226,0.2283,0.2284,0.2268,0.2291,0.2301,0.2323,0.2327,0.2348,0.2351,0.2367,0.2376,0.2376,0.2401,0.2379,0.2413,0.2414,0.2416,0.2436,0.2439,0.2442,0,0,0,0,0,0.2296,0.2257,0.2256,0.2252,0.2244,0.2269,0.2277,0.2316,0.2323,0.2327,0.2345,0.2351,0.2387,0.2376,0.2376,0.2402,0.2412,0.2414,0.2416,0.2434,0.2438,0.2442,0,0,0,0,0,0,0.232,0.2259,0.2259,0.2213,0.2242,0.2279,0.2292,0.231,0.2327,0.2329,0.2348,0.2353,0.2377,0.2378,0.2365,0.2419,0.2405,0.2407,0.2419,0.2423,0.2427,0.24,0.2379,0,0,0,0,0,0.2303,0.2243,0.2237,0.2222,0.2214,0.2249,0.2268,0.2289,0.2309,0.2318,0.2332,0.2353,0.2385,0.2393,0.2412,0.2424,0.2429,0.2445,0.2449,0.2451,0.2431,0.248,0.2485,0.2423,0.2423,0.2423,0,0,0.2329,0.2284,0.2263,0.2223,0.224,0.2243,0.226,0.228,0.2298,0.2315,0.2331,0.2359,0.239,0.2421,0.2432,0.2425,0.2472,0.2454,0.2456,0.2434,0.2482,0.2488,0.2494,0.2424,0.2424,0.2424,0,0,0.2347,0.2285,0.2239,0.2239,0.2243,0.2253,0.2251,0.2268,0.2281,0.2299,0.2333,0.2364,0.239,0.2429,0.2451,0.2475,0.249,0.2495,0.2488,0.2536,0.2542,0.2546,0.2559,0.2564,0.2496,0.2496,0.2496,0,0.2392,0.2308,0.2254,0.2226,0.2239,0.2247,0.2249,0.226,0.2291,0.2309,0.2303,0.2379,0.2394,0.2461,0.2471,0.2482,0.2502,0.2473,0.2541,0.2545,0.255,0.2561,0.2567,0.2497,0.2497,0.2497,0.2497,0,0.2377,0.2323,0.2307,0.2247,0.2256,0.2262,0.2262,0.2272,0.2281,0.2309,0.2359,0.2385,0.2438,0.2457,0.2464,0.2522,0.2522,0.2542,0.2528,0.2557,0.2568,0.2574,0.2499,0.2498,0.2498,0.2498,0,0,0.2438,0.2313,0.2308,0.2296,0.2261,0.2281,0.2281,0.2302,0.2348,0.2347,0.2405,0.2434,0.2457,0.2481,0.2514,0.2536,0.2577,0.2544,0.2546,0.2551,0.2666,0.2653,0.2657,0.2622,0.2623,0.2624,0.266,0,0.2455,0.2402,0.2323,0.2328,0.2319,0.23,0.2317,0.2346,0.2379,0.2432,0.2443,0.2515,0.2468,0.2524,0.2528,0.2593,0.2594,0.2564,0.264,0.2641,0.2623,0.2664,0.251,0.2528,0.2665,0.2666,0.2667,0,0.2462,0.2423,0.2406,0.2372,0.2364,0.2375,0.2429,0.2444,0.2496,0.2521,0.2559,0.2591,0.2626,0.259,0.2638,0.2629,0.2624,0.2641,0.2645,0.2622,0.2638,0.2523,0.2533,0.2441,0.2676,0.2675,0.2674,0,0.2564,0.2484,0.2475,0.2467,0.2431,0.2439,0.2439,0.2493,0.2531,0.2603,0.2661,0.2688,0.2754,0.2731,0.2743,0.2706,0.28,0.2766,0.2731,0.2729,0.2603,0.2588,0.2523,0.2769,0.2769,0.2769,0.2768,0,0.2609,0.262,0.2525,0.2535,0.2567,0.2521,0.259,0.2601,0.2649,0.2734,0.2722,0.2821,0.2799,0.2851,0.2793,0.2796,0.2842,0.2724,0.2745,0.2606,0.2592,0.251,0.2507,0.277,0.277,0.2769,0.2769,0,0.2745,0.2671,0.2677,0.2621,0.2614,0.2658,0.2659,0.2728,0.2748,0.2862,0.2887,0.2956,0.303,0.2993,0.302,0.2907,0.2802,0.2872,0.2693,0.2691,0.2522,0.2526,0.2432,0.2359,0.2802,0.2802,0.2802,0,0.2814,0.2819,0.2761,0.2777,0.2754,0.2785,0.2821,0.2802,0.2866,0.2965,0.3035,0.3137,0.3224,0.3223,0.3073,0.2964,0.2858,0.273,0.2609,0.2491,0.2512,0.2435,0.2373,0.2442,0.2439,0.2437,0.2435,0,0.2965,0.2932,0.2913,0.293,0.2955,0.2972,0.3002,0.3036,0.3046,0.3118,0.323,0.3302,0.3307,0.3158,0.3021,0.2908,0.2588,0.2677,0.2603,0.2261,0.2124,0.2071,0.2431,0.2413,0.2415,0.2417,0.2418,0.2419,0.3092,0.3104,0.3063,0.308,0.3109,0.3136,0.3143,0.3159,0.321,0.3235,0.3345,0.3345,0.3172,0.2967,0.2853,0.2458,0.2505,0.2246,0.2271,0.221,0.2099,0.2406,0.2397,0.2399,0.2401,0.2402,0.2404,0,0.3251,0.322,0.3228,0.3225,0.3267,0.3244,0.3252,0.3215,0.3236,0.3238,0.3286,0.3048,0.2866,0.2622,0.2199,0.2029,0.1894,0.1931,0.1752,0.172,0.2015,0.1958,0.1795,0.1795,0.1795,0.1796,0.1796,0.1796,0.3327,0.3353,0.3305,0.3361,0.3362,0.3363,0.3342,0.3247,0.3179,0.2967,0.2764,0.2696,0.2448,0.2157,0.1818,0.1727,0.1574,0.1498,0.1546,0.1718,0.1747,0.1774,0.1715,0.1503,0.1503,0.1098,0.1095,0.1093]},{"header":{"parameterUnit":"m.s-1","parameterCategory":2,"la1":30.2991,"la2":30.254,"lo1":-89.0895,"lo2":-89.0444,"dy":0.0017,"dx":0.0017,"nx":28,"ny":28,"refTime":"2025-01-22T09:00:00:Z","depth":"0","parameterNumber":3,"parameterNumberName":"V-component_of_CURRENTS"},"data":[0,0,0,0,0,0,0,0,0,0,0,0,0,0,0,0,0,0,0,0,0,0,0,0,0,0,0,0,0,0,0,0,0,0,0,0,0,0,0,0,0,0,0,0,0,0,0,0,0,0,0,0,0,0,0,0,0,0,-0.0313,-0.0314,0,-0.0378,-0.0378,-0.0379,-0.0456,-0.0458,-0.0459,-0.0461,-0.0527,-0.0527,-0.0527,0,0,0,0,0,0,0,0,0,0,0,0,0,-0.0395,-0.0391,-0.0313,-0.0314,-0.0315,-0.0378,-0.0378,-0.0379,-0.0456,-0.0458,-0.046,-0.0462,-0.0527,-0.0527,-0.0527,0,0,0,0,0,0,0,0,0,0,0,0,0,-0.0394,-0.039,-0.0313,-0.0365,-0.0371,-0.0378,-0.0378,-0.0379,-0.0455,-0.0458,-0.046,-0.0463,-0.0527,-0.0527,-0.0527,-0.0479,0,0,-0.0528,-0.0528,0,0,0,0,0,0,0,0,-0.0394,-0.039,-0.0356,-0.0362,-0.0368,-0.0416,-0.0432,-0.0414,-0.0455,-0.0418,-0.0461,-0.0464,-0.0491,-0.0495,-0.0494,-0.0482,-0.0485,-0.0528,-0.0528,-0.0528,-0.0528,0,0,0,0,0,0,0,-0.0393,-0.0389,-0.0333,-0.0357,-0.0365,-0.0434,-0.0434,-0.0429,-0.0436,-0.0421,-0.0428,-0.0443,-0.0494,-0.0493,-0.0496,-0.0486,-0.0528,-0.0528,-0.0529,-0.0529,-0.0542,-0.0543,0,0,0,0,0,0,-0.0385,-0.0387,-0.0331,-0.0336,-0.0393,-0.043,-0.0431,-0.0394,-0.0436,-0.0446,-0.0441,-0.0446,-0.0492,-0.0496,-0.0499,-0.0497,-0.0528,-0.0529,-0.0529,-0.0542,-0.0542,-0.0543,0,0,0,0,0,0,-0.0385,-0.0377,-0.0329,-0.0371,-0.0371,-0.0425,-0.0384,-0.0394,-0.0407,-0.0452,-0.0462,-0.0446,-0.0494,-0.0498,-0.0505,-0.0499,-0.0529,-0.0529,-0.0542,-0.0542,-0.0543,-0.0461,0,0,0,0,0,0,-0.0386,-0.0375,-0.0358,-0.0368,-0.0368,-0.0331,-0.0382,-0.0394,-0.0414,-0.0422,-0.0459,-0.0467,-0.0496,-0.0505,-0.0506,-0.05,-0.0529,-0.0542,-0.0542,-0.0542,-0.0463,-0.0458,-0.0454,0,0,0,0,0,-0.0388,-0.0353,-0.0355,-0.035,-0.0335,-0.0331,-0.0336,-0.0383,-0.0412,-0.0405,-0.0439,-0.0467,-0.0509,-0.0504,-0.0505,-0.0499,-0.0542,-0.0542,-0.0542,-0.0465,-0.0459,-0.0454,0,0,0,0,0,0,-0.0432,-0.0358,-0.0361,-0.032,-0.0325,-0.0346,-0.0344,-0.0376,-0.0394,-0.0403,-0.0449,-0.0458,-0.0469,-0.0492,-0.0486,-0.051,-0.0537,-0.0538,-0.0478,-0.0473,-0.0468,-0.0426,-0.053,0,0,0,0,0,-0.0416,-0.0352,-0.0327,-0.0314,-0.0285,-0.031,-0.032,-0.0346,-0.0364,-0.0376,-0.0399,-0.0435,-0.0466,-0.0476,-0.0499,-0.0489,-0.0493,-0.0496,-0.0491,-0.0487,-0.0457,-0.0466,-0.0458,-0.0544,-0.0544,-0.0544,0,0,-0.0457,-0.0398,-0.0381,-0.0317,-0.0308,-0.0264,-0.0319,-0.0316,-0.0311,-0.0375,-0.0364,-0.041,-0.0462,-0.0468,-0.0475,-0.0487,-0.0465,-0.0487,-0.0483,-0.0455,-0.0465,-0.0456,-0.0449,-0.0544,-0.0544,-0.0544,0,0,-0.0455,-0.0409,-0.0327,-0.0297,-0.0259,-0.0258,-0.0251,-0.0243,-0.0259,-0.0255,-0.0317,-0.035,-0.0375,-0.0415,-0.0442,-0.0418,-0.0441,-0.0444,-0.0377,-0.0387,-0.0378,-0.0371,-0.0357,-0.0349,-0.0439,-0.0439,-0.0439,0,-0.0513,-0.0377,-0.0329,-0.0236,-0.0211,-0.024,-0.0175,-0.0189,-0.0209,-0.0206,-0.0243,-0.0296,-0.0347,-0.0366,-0.0376,-0.0404,-0.0405,-0.0391,-0.0376,-0.037,-0.0364,-0.0351,-0.0343,-0.0435,-0.0436,-0.0436,-0.0437,0,-0.0417,-0.0328,-0.0279,-0.0145,-0.0124,-0.008,-0.0068,-0.0061,-0.0084,-0.0105,-0.0121,-0.0191,-0.0223,-0.0263,-0.0313,-0.031,-0.0322,-0.0368,-0.038,-0.0349,-0.0339,-0.0332,-0.043,-0.0431,-0.0432,-0.0433,0,0,-0.0484,-0.0249,-0.0226,-0.0138,-0.0059,-0.0024,0.0003,0.004,0.0062,0.0019,0.0045,-0.0041,-0.0084,-0.0118,-0.0195,-0.0213,-0.0192,-0.0267,-0.0269,-0.0232,-0.0186,-0.0205,-0.02,-0.0235,-0.0233,-0.0232,-0.0191,0,-0.042,-0.0192,-0.0115,0.0016,0.0128,0.0127,0.0158,0.0161,0.0148,0.0162,0.0081,0.0064,-0.003,-0.0056,-0.0086,-0.0171,-0.0172,-0.0196,-0.0239,-0.0239,-0.0243,-0.0193,-0.0158,-0.0119,-0.0185,-0.0184,-0.0184,0,-0.0311,-0.0172,0.0021,0.0168,0.0214,0.0256,0.0327,0.0347,0.0338,0.0323,0.0291,0.0221,0.0173,0.0084,0.0006,-0.0005,-0.0074,-0.0136,-0.0137,-0.0172,-0.0246,-0.0166,-0.0106,-0.0216,-0.0174,-0.0175,-0.0176,0,-0.0284,-0.0075,0.0097,0.0148,0.0291,0.0338,0.0383,0.0398,0.043,0.0423,0.043,0.0366,0.0331,0.024,0.009,0.0055,0.0017,-0.0052,-0.012,-0.0122,-0.0106,-0.0108,-0.0137,-0.0076,-0.0076,-0.0076,-0.0076,0,-0.0197,-0.0081,0.0128,0.0216,0.035,0.0408,0.0507,0.053,0.0557,0.0608,0.0515,0.0529,0.0367,0.0302,0.0168,0.0057,0.008,-0.0074,-0.0105,-0.0078,-0.0079,-0.0189,-0.0267,-0.0074,-0.0075,-0.0075,-0.0075,0,-0.0182,-0.0033,0.0156,0.034,0.0387,0.048,0.0593,0.065,0.0663,0.0725,0.0722,0.0668,0.0595,0.0434,0.0298,0.0164,-0.0008,0.0001,0.0054,0.0028,-0.0152,-0.0226,-0.0276,-0.0318,-0.0047,-0.0047,-0.0048,0,-0.0147,-0.0028,0.0244,0.034,0.0426,0.0555,0.0629,0.0694,0.075,0.0812,0.0844,0.08,0.0793,0.0599,0.0362,0.0171,0.0025,0.0052,-0.0021,-0.0124,-0.023,-0.0291,-0.0328,0.0039,0.004,0.0041,0.0041,0,-0.0128,-0.0002,0.0174,0.0398,0.0522,0.0644,0.0758,0.0825,0.0898,0.0965,0.104,0.1055,0.0887,0.0719,0.0444,0.0291,-0.0013,0.0056,-0.0063,-0.0157,-0.0212,-0.028,-0.0018,0.0045,0.0045,0.0045,0.0044,0.0044,-0.0118,0.0005,0.0259,0.0449,0.0591,0.0709,0.0798,0.0927,0.1054,0.121,0.1215,0.1326,0.1034,0.0678,0.0456,0.0047,0.0019,-0.008,-0.0155,-0.0202,-0.0263,0.0018,0.0037,0.0037,0.0036,0.0036,0.0036,0,-0.0104,0.0057,0.0261,0.0503,0.0643,0.0707,0.086,0.0964,0.1136,0.1373,0.1491,0.1432,0.1122,0.0737,0.0149,-0.0118,-0.0218,-0.0267,-0.0339,-0.0364,-0.0108,-0.0127,-0.0128,-0.0128,-0.0128,-0.0128,-0.0128,-0.0128,-0.0067,0.0118,0.0243,0.0479,0.0624,0.0768,0.0851,0.1051,0.1247,0.1535,0.1671,0.1733,0.1353,0.0413,-0.0196,-0.0328,-0.0523,-0.0557,-0.0667,-0.0498,-0.0486,-0.0475,-0.051,-0.0592,-0.0593,-0.0868,-0.087,-0.0873]}],[{"header":{"parameterUnit":"m.s-1","parameterCategory":2,"la1":30.2991,"la2":30.254,"lo1":-89.0895,"lo2":-89.0444,"dy":0.0017,"dx":0.0017,"nx":28,"ny":28,"refTime":"2025-01-22T09:00:00:Z","depth":"2","parameterNumber":2,"parameterNumberName":"U-component_of_CURRENTS"},"data":[0,0,0,0,0,0,0,0,0,0,0,0,0,0,0,0,0,0,0,0,0,0,0,0,0,0,0,0,0,0,0,0,0,0,0,0,0,0,0,0,0,0,0,0,0,0,0,0,0,0,0,0,0,0,0,0,0,0,0.159,0.159,0,0.1667,0.1669,0.1671,0.1695,0.1693,0.1691,0.1689,0.1752,0.1755,0.1759,0,0,0,0,0,0,0,0,0,0,0,0,0,0.1621,0.1621,0.1591,0.159,0.159,0.1667,0.1669,0.1672,0.1695,0.1693,0.1691,0.1689,0.1751,0.1755,0.1759,0,0,0,0,0,0,0,0,0,0,0,0,0,0.1658,0.1621,0.1591,0.16,0.16,0.1666,0.1669,0.1673,0.1695,0.1693,0.169,0.1688,0.175,0.1755,0.1759,0.1842,0,0,0.1775,0.1777,0,0,0,0,0,0,0,0,0.1655,0.1658,0.1599,0.1599,0.1599,0.1656,0.1702,0.1723,0.1696,0.1675,0.1689,0.1686,0.1711,0.1719,0.176,0.1845,0.1848,0.1775,0.1778,0.178,0.1781,0,0,0,0,0,0,0,0.1653,0.1656,0.1636,0.1598,0.1599,0.1653,0.1655,0.1709,0.1718,0.1677,0.1675,0.1661,0.1713,0.1756,0.1762,0.1849,0.1775,0.1779,0.1782,0.1784,0.1901,0.1901,0,0,0,0,0,0,0.1608,0.1653,0.1633,0.1637,0.1605,0.1652,0.1656,0.1652,0.1717,0.1721,0.1663,0.1661,0.1749,0.1756,0.1764,0.1828,0.178,0.1785,0.1787,0.1901,0.1901,0.1901,0,0,0,0,0,0,0.1609,0.1606,0.163,0.1634,0.1639,0.1652,0.165,0.1655,0.1711,0.1704,0.171,0.1711,0.1747,0.1757,0.1796,0.1831,0.1787,0.1791,0.19,0.1901,0.1901,0.198,0,0,0,0,0,0,0.161,0.1607,0.1611,0.1631,0.1636,0.1661,0.1651,0.1658,0.1698,0.1698,0.1748,0.175,0.1746,0.1789,0.1801,0.1837,0.1795,0.19,0.19,0.1901,0.1977,0.1983,0.1988,0,0,0,0,0,0.1611,0.1606,0.1612,0.1609,0.1635,0.166,0.1671,0.1681,0.1703,0.1727,0.1749,0.175,0.1798,0.1794,0.1809,0.1847,0.19,0.19,0.1901,0.1975,0.1982,0.1988,0,0,0,0,0,0,0.1622,0.1607,0.1614,0.1606,0.1628,0.1657,0.1674,0.1707,0.1757,0.1745,0.1775,0.1779,0.183,0.1821,0.1817,0.1872,0.1842,0.1845,0.1893,0.19,0.1905,0.1872,0.1799,0,0,0,0,0,0.1625,0.1613,0.1624,0.1618,0.1631,0.1674,0.1694,0.1695,0.1724,0.1747,0.1785,0.1806,0.1847,0.1856,0.1884,0.1931,0.1925,0.1952,0.1957,0.1962,0.1939,0.199,0.1999,0.1902,0.1902,0.1902,0,0,0.1605,0.1612,0.1593,0.162,0.1644,0.1672,0.1684,0.1695,0.1724,0.1745,0.1809,0.1845,0.1866,0.1908,0.1927,0.1901,0.1984,0.1962,0.1967,0.1941,0.1992,0.2001,0.201,0.1902,0.1902,0.1902,0,0,0.16,0.1594,0.1604,0.1626,0.1647,0.1665,0.1677,0.1719,0.1745,0.1802,0.1825,0.1867,0.1936,0.1947,0.1967,0.2018,0.2026,0.2033,0.2028,0.2079,0.2088,0.2096,0.2098,0.2105,0.2019,0.2019,0.2019,0,0.16,0.1606,0.1612,0.1651,0.1657,0.1671,0.1696,0.1733,0.1782,0.1816,0.1808,0.1932,0.1949,0.2017,0.2013,0.2034,0.2049,0.2015,0.209,0.2097,0.2104,0.2103,0.2111,0.2023,0.2023,0.2022,0.2022,0,0.1629,0.1626,0.1633,0.1677,0.1697,0.17,0.1729,0.1768,0.1803,0.1843,0.1925,0.1955,0.2017,0.2039,0.2042,0.2106,0.2096,0.2113,0.2082,0.2119,0.2115,0.2121,0.2029,0.2027,0.2026,0.2025,0,0,0.1648,0.1651,0.1653,0.1678,0.1698,0.1726,0.1757,0.1811,0.1872,0.1906,0.1987,0.2041,0.2066,0.2083,0.2109,0.2131,0.219,0.2132,0.2133,0.2145,0.228,0.2233,0.2234,0.2242,0.2244,0.2245,0.2258,0,0.1679,0.1738,0.1714,0.1748,0.1787,0.1778,0.1827,0.187,0.1915,0.1993,0.2017,0.2106,0.2083,0.2132,0.2147,0.22,0.2209,0.2182,0.2228,0.2227,0.2194,0.2241,0.206,0.2053,0.2263,0.2264,0.2265,0,0.1735,0.1769,0.181,0.1818,0.1834,0.1851,0.1928,0.1962,0.2039,0.2083,0.2135,0.2171,0.2212,0.2191,0.2249,0.2243,0.2247,0.2263,0.2265,0.219,0.2192,0.2048,0.2056,0.2275,0.2274,0.2273,0.2273,0,0.1809,0.1825,0.1858,0.1866,0.1896,0.1914,0.193,0.2007,0.2055,0.2145,0.2204,0.2251,0.2307,0.2314,0.2323,0.2306,0.2379,0.2367,0.2315,0.231,0.2141,0.2119,0.2392,0.2392,0.2392,0.2392,0.2392,0,0.1851,0.1896,0.19,0.1924,0.1986,0.1985,0.2054,0.2092,0.2151,0.2227,0.2256,0.233,0.235,0.2387,0.2356,0.2354,0.241,0.2308,0.232,0.2161,0.2142,0.2318,0.2309,0.2393,0.2393,0.2392,0.2392,0,0.1935,0.1932,0.1989,0.2008,0.2018,0.2076,0.2098,0.2153,0.222,0.231,0.2342,0.2417,0.2473,0.2464,0.2497,0.2423,0.2413,0.2396,0.2181,0.2167,0.2286,0.2281,0.2318,0.2316,0.2315,0.2314,0.2314,0,0.2006,0.2034,0.2051,0.2089,0.2091,0.2153,0.2181,0.22,0.2237,0.2367,0.2401,0.2496,0.2516,0.2521,0.2451,0.2379,0.2428,0.2163,0.2085,0.2275,0.2283,0.228,0.2276,0.1883,0.1879,0.1875,0.1873,0,0.213,0.2114,0.2122,0.2168,0.2192,0.2217,0.2241,0.2251,0.2288,0.2381,0.2457,0.2477,0.2492,0.2337,0.2262,0.2196,0.2151,0.2089,0.2377,0.1939,0.1869,0.1876,0.1886,0.1842,0.1845,0.1847,0.1849,0.185,0.2219,0.2227,0.2195,0.2235,0.2266,0.2237,0.2245,0.2214,0.2236,0.2231,0.2338,0.2286,0.2248,0.2031,0.1936,0.1869,0.2013,0.1871,0.188,0.1893,0.185,0.1783,0.1728,0.173,0.1732,0.1734,0.1736,0,0.2295,0.2271,0.2284,0.227,0.2253,0.2279,0.2269,0.2192,0.2158,0.2086,0.2082,0.1833,0.1707,0.169,0.1538,0.1492,0.1457,0.1417,0.1355,0.1389,0.1418,0.1348,0.1094,0.1092,0.1089,0.1087,0,0,0.2336,0.2311,0.2259,0.223,0.2243,0.2126,0.2109,0.2006,0.1918,0.171,0.1623,0.1613,0.1662,0.1364,0.1302,0.1184,0.1279,0.1131,0.1654,0.1621,0.1647,0.1695,0.1628,0,0,0,0,0]},{"header":{"parameterUnit":"m.s-1","parameterCategory":2,"la1":30.2991,"la2":30.254,"lo1":-89.0895,"lo2":-89.0444,"dy":0.0017,"dx":0.0017,"nx":28,"ny":28,"refTime":"2025-01-22T09:00:00:Z","depth":"2","parameterNumber":3,"parameterNumberName":"V-component_of_CURRENTS"},"data":[0,0,0,0,0,0,0,0,0,0,0,0,0,0,0,0,0,0,0,0,0,0,0,0,0,0,0,0,0,0,0,0,0,0,0,0,0,0,0,0,0,0,0,0,0,0,0,0,0,0,0,0,0,0,0,0,0,0,0.0499,0.0501,0,0.0429,0.0426,0.0424,0.0383,0.0385,0.0388,0.039,0.0304,0.03,0.0296,0,0,0,0,0,0,0,0,0,0,0,0,0,0.0488,0.0487,0.0499,0.0501,0.0502,0.043,0.0426,0.0423,0.0383,0.0385,0.0388,0.0391,0.0305,0.03,0.0295,0,0,0,0,0,0,0,0,0,0,0,0,0,0.044,0.0487,0.0499,0.0492,0.0492,0.043,0.0426,0.0422,0.0382,0.0386,0.0389,0.0392,0.0307,0.0301,0.0294,0.019,0,0,0.0275,0.0272,0,0,0,0,0,0,0,0,0.0442,0.0437,0.0491,0.0492,0.0493,0.044,0.0393,0.0353,0.0381,0.0397,0.039,0.0393,0.0362,0.0351,0.0295,0.0186,0.0183,0.0274,0.027,0.0268,0.0266,0,0,0,0,0,0,0,0.0446,0.0439,0.0446,0.0493,0.0494,0.0457,0.0451,0.0382,0.0343,0.0396,0.04,0.0431,0.0359,0.0301,0.0294,0.0182,0.0274,0.0269,0.0265,0.0262,0.0176,0.0178,0,0,0,0,0,0,0.0507,0.0443,0.0449,0.0447,0.0504,0.0456,0.0449,0.0433,0.0344,0.0341,0.0428,0.043,0.0311,0.0301,0.0291,0.0286,0.0268,0.0262,0.0258,0.0175,0.0176,0.0178,0,0,0,0,0,0,0.0506,0.0506,0.0452,0.0466,0.046,0.0457,0.0437,0.0431,0.0381,0.0373,0.0365,0.0391,0.0313,0.03,0.0276,0.0278,0.0259,0.0253,0.0173,0.0175,0.0177,0.0197,0,0,0,0,0,0,0.0504,0.0504,0.0479,0.0469,0.0463,0.0448,0.0437,0.0428,0.0408,0.0408,0.0337,0.0333,0.0315,0.0286,0.0269,0.0269,0.0248,0.0171,0.0174,0.0177,0.0195,0.02,0.0205,0,0,0,0,0,0.0503,0.0491,0.0477,0.0479,0.0438,0.0452,0.0441,0.0433,0.0404,0.0391,0.0361,0.0335,0.0295,0.028,0.0261,0.0259,0.0169,0.0173,0.0176,0.0193,0.0199,0.0205,0,0,0,0,0,0,0.0499,0.0488,0.0472,0.0461,0.047,0.0456,0.0453,0.042,0.0369,0.0385,0.0325,0.0319,0.0297,0.0281,0.0267,0.0253,0.0237,0.0237,0.0256,0.0261,0.0266,0.0294,0.0243,0,0,0,0,0,0.0482,0.0453,0.0464,0.0459,0.0468,0.0439,0.043,0.0442,0.0424,0.0401,0.0343,0.0315,0.0287,0.0281,0.0248,0.0218,0.0202,0.0219,0.0224,0.0228,0.0243,0.0215,0.0218,0.019,0.019,0.0189,0,0,0.0526,0.048,0.0495,0.0454,0.0451,0.0464,0.0435,0.0466,0.0465,0.0401,0.0349,0.0308,0.0281,0.0266,0.0258,0.0259,0.023,0.0232,0.0235,0.0249,0.0219,0.0221,0.0223,0.0192,0.0192,0.0191,0,0,0.056,0.0516,0.0503,0.0499,0.0506,0.0495,0.0505,0.0486,0.0466,0.0432,0.0395,0.0368,0.0295,0.0289,0.0276,0.0285,0.0243,0.0278,0.0329,0.03,0.0302,0.0303,0.0288,0.0288,0.0296,0.0296,0.0296,0,0.0572,0.0558,0.0515,0.0491,0.0515,0.0509,0.0539,0.0509,0.048,0.0466,0.0448,0.0349,0.0312,0.0304,0.0321,0.0292,0.0275,0.0298,0.0304,0.0304,0.0305,0.029,0.0289,0.0298,0.0298,0.0298,0.0297,0,0.0602,0.0596,0.0603,0.0554,0.056,0.0607,0.0605,0.0584,0.055,0.052,0.0487,0.0431,0.0389,0.0369,0.0341,0.0334,0.0319,0.0294,0.028,0.0308,0.0292,0.029,0.03,0.0299,0.0299,0.0299,0,0,0.0605,0.0615,0.0615,0.0626,0.0612,0.0634,0.0636,0.0638,0.0638,0.0586,0.0569,0.0508,0.0471,0.0457,0.0413,0.0393,0.0367,0.0353,0.0351,0.0326,0.0313,0.0288,0.0284,0.0332,0.0332,0.0332,0.0299,0,0.0632,0.0638,0.0624,0.0679,0.0712,0.0705,0.07,0.0703,0.0678,0.065,0.0609,0.0571,0.051,0.0493,0.0462,0.0389,0.0365,0.0379,0.0302,0.0301,0.0263,0.0282,0.0294,0.0264,0.0297,0.0297,0.0297,0,0.0647,0.0649,0.0714,0.0752,0.0763,0.0778,0.0793,0.0798,0.0772,0.0752,0.072,0.0665,0.0628,0.0568,0.0475,0.0485,0.0407,0.0349,0.0346,0.0317,0.0274,0.0243,0.026,0.0294,0.0295,0.0295,0.0295,0,0.0678,0.0709,0.0766,0.0783,0.0817,0.0831,0.0838,0.0827,0.0846,0.0818,0.0824,0.0755,0.0734,0.063,0.0503,0.0486,0.0399,0.036,0.0268,0.0266,0.0261,0.0259,0.0291,0.0291,0.0292,0.0292,0.0292,0,0.0703,0.0743,0.079,0.0826,0.0895,0.0883,0.0933,0.0931,0.0933,0.0976,0.0885,0.0907,0.0745,0.067,0.0541,0.0411,0.0427,0.0286,0.0256,0.0271,0.0269,0.0285,0.0284,0.029,0.0291,0.0291,0.0291,0,0.0734,0.0769,0.0846,0.0902,0.0924,0.0974,0.1017,0.1046,0.1034,0.1092,0.1087,0.1025,0.0923,0.0753,0.0591,0.0474,0.0339,0.0282,0.0316,0.029,0.0216,0.0218,0.0187,0.0186,0.0185,0.0185,0.0184,0,0.0778,0.0806,0.0911,0.0971,0.1,0.1061,0.1106,0.1114,0.1154,0.118,0.1223,0.1132,0.1102,0.0854,0.0602,0.0371,0.0336,0.0236,0.0199,0.0232,0.0206,0.0209,0.0212,0.0204,0.0203,0.0203,0.0203,0,0.0827,0.0842,0.0898,0.104,0.112,0.1222,0.1281,0.132,0.1341,0.1388,0.1449,0.1424,0.1169,0.0929,0.0582,0.0431,0.027,0.0221,0.025,0.0226,0.0243,0.0219,0.0222,0.0199,0.02,0.02,0.02,0.02,0.0872,0.0903,0.0976,0.111,0.1228,0.1372,0.1436,0.1499,0.16,0.1653,0.1618,0.1557,0.1269,0.0806,0.0532,0.0229,0.0252,0.015,0.0153,0.0155,0.0161,0.0175,0.012,0.012,0.012,0.012,0.012,0,0.0931,0.0929,0.1036,0.1247,0.1421,0.1447,0.1552,0.1623,0.1746,0.1747,0.1777,0.1469,0.1178,0.0832,0.0379,0.0136,0.012,0.0058,0.0088,0.0094,0.0099,0.0101,0.0044,0.0043,0.0042,0.0041,0,0,0.0955,0.1031,0.107,0.1382,0.1523,0.175,0.1792,0.1867,0.1864,0.1847,0.175,0.1639,0.1223,0.0876,0.0539,0.0282,0.0247,0.0237,0.0327,0.041,0.0417,0.0184,0.0198,0,0,0,0,0]}],[{"header":{"parameterUnit":"m.s-1","parameterCategory":2,"la1":30.2991,"la2":30.254,"lo1":-89.0895,"lo2":-89.0444,"dy":0.0017,"dx":0.0017,"nx":28,"ny":28,"refTime":"2025-01-22T09:00:00:Z","depth":"4","parameterNumber":2,"parameterNumberName":"U-component_of_CURRENTS"},"data":[0,0,0,0,0,0,0,0,0,0,0,0,0,0,0,0,0,0,0,0,0,0,0,0,0,0,0,0,0,0,0,0,0,0,0,0,0,0,0,0,0,0,0,0,0,0,0,0,0,0,0,0,0,0,0,0,0,0,0.0699,0.07,0,0.0786,0.0787,0.0787,0.0816,0.0815,0.0815,0.0815,0.0917,0.092,0.0923,0,0,0,0,0,0,0,0,0,0,0,0,0,0.0506,0.0509,0.0699,0.07,0.0702,0.0786,0.0787,0.0788,0.0816,0.0815,0.0815,0.0815,0.0916,0.092,0.0923,0,0,0,0,0,0,0,0,0,0,0,0,0,0.0589,0.051,0.0699,0.0727,0.0731,0.0785,0.0787,0.0788,0.0816,0.0815,0.0815,0.0815,0.0915,0.092,0.0924,0.0957,0,0,0.0937,0.0939,0,0,0,0,0,0,0,0,0.0584,0.0596,0.0722,0.0725,0.0729,0.0791,0.0756,0.0846,0.0816,0.0781,0.0815,0.0815,0.0878,0.0886,0.09,0.0962,0.0966,0.0938,0.094,0.0942,0.0943,0,0,0,0,0,0,0,0.0579,0.0592,0.0731,0.0723,0.0728,0.0718,0.0729,0.0773,0.0829,0.0784,0.0787,0.08,0.088,0.0895,0.0902,0.0968,0.0937,0.0941,0.0944,0.0946,0.11,0.1101,0,0,0,0,0,0,0.0576,0.0587,0.0729,0.0734,0.0657,0.0722,0.0735,0.077,0.0829,0.0838,0.08,0.0801,0.0888,0.0897,0.0906,0.0988,0.0942,0.0946,0.0949,0.1099,0.11,0.1102,0,0,0,0,0,0,0.0572,0.0588,0.0725,0.0662,0.0679,0.0726,0.0765,0.0772,0.0806,0.0841,0.0849,0.0829,0.0888,0.09,0.0965,0.0991,0.0948,0.0952,0.1097,0.1099,0.1101,0.1127,0,0,0,0,0,0,0.0566,0.0587,0.0612,0.0663,0.0683,0.0768,0.0766,0.0774,0.0814,0.0817,0.0869,0.0876,0.0889,0.0958,0.0969,0.0996,0.0956,0.1095,0.1098,0.11,0.1124,0.113,0.1135,0,0,0,0,0,0.0559,0.0587,0.0613,0.063,0.0717,0.0769,0.0779,0.0807,0.0816,0.0836,0.0875,0.0876,0.0983,0.0964,0.0976,0.1004,0.1094,0.1097,0.11,0.1122,0.1129,0.1134,0,0,0,0,0,0,0.0497,0.0595,0.0624,0.0676,0.0727,0.0775,0.0798,0.0821,0.0868,0.0876,0.0903,0.0915,0.0977,0.0993,0.0971,0.1057,0.1035,0.1041,0.1048,0.1054,0.1059,0.106,0.0959,0,0,0,0,0,0.0502,0.0563,0.0635,0.0677,0.0709,0.076,0.0786,0.0812,0.0858,0.0878,0.0916,0.0957,0.0999,0.1028,0.1063,0.1121,0.1135,0.1145,0.115,0.1154,0.1164,0.1212,0.1222,0.1113,0.1113,0.1113,0,0,0.0485,0.055,0.058,0.067,0.0714,0.0766,0.0775,0.0826,0.0866,0.0884,0.0952,0.098,0.1018,0.1074,0.1103,0.1094,0.1192,0.1158,0.1161,0.1169,0.1217,0.1227,0.1237,0.1115,0.1115,0.1114,0,0,0.0484,0.0548,0.0601,0.0657,0.0738,0.0773,0.0794,0.0862,0.0892,0.0964,0.0979,0.1026,0.11,0.1124,0.1147,0.1207,0.1216,0.1218,0.1252,0.1298,0.1307,0.1316,0.1341,0.1351,0.1223,0.1223,0.1223,0,0.0458,0.0547,0.0616,0.0682,0.0727,0.0781,0.0833,0.0876,0.0952,0.0984,0.099,0.1098,0.1123,0.119,0.1206,0.1218,0.1242,0.1222,0.1304,0.1313,0.1321,0.1345,0.1356,0.1225,0.1225,0.1225,0.1225,0,0.0499,0.0577,0.061,0.0724,0.0772,0.0826,0.0898,0.0948,0.0993,0.1034,0.1116,0.1156,0.1219,0.1231,0.1241,0.131,0.1307,0.1301,0.1285,0.1333,0.1356,0.1367,0.1227,0.1227,0.1226,0.1226,0,0,0.0441,0.0607,0.0625,0.0691,0.0804,0.0848,0.0921,0.1002,0.1052,0.1123,0.1188,0.1257,0.1279,0.1307,0.1323,0.1362,0.143,0.1362,0.1363,0.138,0.153,0.14,0.1399,0.1444,0.1446,0.1448,0.1519,0,0.0459,0.0574,0.0659,0.0764,0.0828,0.0911,0.0973,0.1049,0.111,0.1182,0.1236,0.1304,0.1309,0.1342,0.1386,0.1419,0.1463,0.1411,0.1486,0.1488,0.1362,0.1409,0.1456,0.1527,0.153,0.1532,0.1533,0,0.049,0.0563,0.0659,0.0806,0.0842,0.0905,0.1015,0.1085,0.1186,0.1235,0.1311,0.1352,0.1429,0.1419,0.1519,0.1491,0.1521,0.154,0.1543,0.1422,0.1379,0.1472,0.1553,0.1551,0.155,0.1548,0.1547,0,0.0429,0.0581,0.0653,0.0703,0.0852,0.0911,0.0993,0.1096,0.1164,0.1272,0.1314,0.1414,0.1466,0.153,0.1572,0.1562,0.1664,0.165,0.1564,0.1555,0.1638,0.1629,0.1728,0.1728,0.1728,0.1727,0.1727,0,0.0437,0.0509,0.0634,0.0682,0.0763,0.0885,0.0983,0.1068,0.1189,0.1256,0.134,0.1387,0.1501,0.1563,0.1599,0.1608,0.1692,0.1579,0.157,0.1646,0.1637,0.1645,0.1635,0.173,0.173,0.1729,0.1729,0,0.0397,0.0479,0.0568,0.0703,0.0748,0.0809,0.0984,0.1048,0.1162,0.1248,0.1286,0.14,0.147,0.1552,0.165,0.1621,0.1651,0.1636,0.1708,0.1701,0.1507,0.1498,0.155,0.1546,0.1543,0.154,0.1538,0,0.039,0.0432,0.0554,0.059,0.0664,0.0774,0.0845,0.1009,0.1076,0.123,0.1252,0.1361,0.1419,0.1455,0.1547,0.1608,0.1596,0.1598,0.1556,0.1505,0.1492,0.1488,0.1483,0.1532,0.1531,0.1531,0.153,0,0.0364,0.0407,0.0476,0.0532,0.0605,0.0691,0.0812,0.0858,0.1028,0.1131,0.1194,0.1245,0.1312,0.1385,0.144,0.1481,0.1587,0.1564,0.1571,0.1532,0.1485,0.1474,0.1473,0.1518,0.152,0.1521,0.1522,0,0.033,0.0356,0.0422,0.0481,0.0545,0.0589,0.0677,0.0775,0.0868,0.1048,0.1061,0.1173,0.1288,0.1318,0.1367,0.1395,0.1382,0.1343,0.1361,0.1375,0.1285,0.1198,0.1144,0,0,0,0,0,0.0281,0.0317,0.0366,0.0411,0.0469,0.0504,0.0639,0.0731,0.0882,0.0895,0.0991,0.1048,0.1123,0.1185,0.1184,0.129,0.1383,0.1281,0.1345,0.1455,0.1468,0.1378,0,0,0,0,0,0,0.0244,0.0298,0.0338,0.0331,0.0347,0.0399,0.0481,0.0592,0.0626,0.0782,0.0834,0.0947,0.1043,0.1094,0.1141,0.1164,0.1178,0.1367,0.1364,0.1448,0.146,0.147,0.1382,0,0,0,0,0]},{"header":{"parameterUnit":"m.s-1","parameterCategory":2,"la1":30.2991,"la2":30.254,"lo1":-89.0895,"lo2":-89.0444,"dy":0.0017,"dx":0.0017,"nx":28,"ny":28,"refTime":"2025-01-22T09:00:00:Z","depth":"4","parameterNumber":3,"parameterNumberName":"V-component_of_CURRENTS"},"data":[0,0,0,0,0,0,0,0,0,0,0,0,0,0,0,0,0,0,0,0,0,0,0,0,0,0,0,0,0,0,0,0,0,0,0,0,0,0,0,0,0,0,0,0,0,0,0,0,0,0,0,0,0,0,0,0,0,0,0.0563,0.0563,0,0.0533,0.0532,0.0531,0.0504,0.0505,0.0505,0.0505,0.0458,0.0456,0.0455,0,0,0,0,0,0,0,0,0,0,0,0,0,0.0582,0.0582,0.0563,0.0563,0.0563,0.0533,0.0532,0.0531,0.0504,0.0505,0.0505,0.0505,0.0458,0.0456,0.0455,0,0,0,0,0,0,0,0,0,0,0,0,0,0.0561,0.0582,0.0563,0.055,0.0549,0.0533,0.0532,0.0531,0.0504,0.0505,0.0505,0.0505,0.0459,0.0457,0.0455,0.0438,0,0,0.0448,0.0447,0,0,0,0,0,0,0,0,0.0562,0.056,0.0552,0.0551,0.0549,0.0527,0.0522,0.0501,0.0504,0.0516,0.0505,0.0505,0.0482,0.0478,0.0465,0.0436,0.0434,0.0448,0.0447,0.0446,0.0445,0,0,0,0,0,0,0,0.0564,0.0561,0.0546,0.0552,0.055,0.054,0.0537,0.0517,0.0494,0.0515,0.0514,0.0518,0.0481,0.0468,0.0464,0.0433,0.0448,0.0446,0.0445,0.0444,0.0421,0.0422,0,0,0,0,0,0,0.0577,0.0562,0.0547,0.0546,0.0562,0.054,0.0536,0.053,0.0495,0.0491,0.0518,0.0517,0.0471,0.0467,0.0463,0.0478,0.0446,0.0444,0.0443,0.0421,0.0422,0.0422,0,0,0,0,0,0,0.0578,0.0576,0.0549,0.0558,0.0554,0.054,0.0533,0.0529,0.0528,0.0498,0.0494,0.0522,0.0471,0.0465,0.0458,0.0474,0.0443,0.0441,0.042,0.0421,0.0422,0.0485,0,0,0,0,0,0,0.0578,0.0576,0.0576,0.0558,0.0554,0.0549,0.0533,0.0529,0.0532,0.053,0.05,0.0495,0.0471,0.0462,0.0456,0.0471,0.044,0.0419,0.042,0.0422,0.0482,0.0488,0.0493,0,0,0,0,0,0.0579,0.0586,0.0576,0.0575,0.0555,0.055,0.0546,0.0534,0.0532,0.0532,0.0517,0.0497,0.0465,0.0461,0.0454,0.0469,0.0419,0.042,0.0422,0.0479,0.0487,0.0493,0,0,0,0,0,0,0.06,0.0584,0.0573,0.0575,0.0566,0.0547,0.0552,0.0543,0.053,0.0534,0.0502,0.0496,0.0497,0.0474,0.0469,0.0465,0.044,0.044,0.0486,0.0492,0.0498,0.05,0.0438,0,0,0,0,0,0.0604,0.0603,0.0586,0.0591,0.0588,0.0571,0.0569,0.0562,0.0551,0.0545,0.0523,0.0505,0.0495,0.0488,0.047,0.0466,0.0433,0.0472,0.0477,0.0482,0.048,0.0448,0.045,0.0427,0.0427,0.0427,0,0,0.0624,0.0608,0.0613,0.0595,0.0587,0.0588,0.0569,0.0576,0.058,0.0542,0.0541,0.0524,0.0498,0.0496,0.0494,0.0481,0.0472,0.0484,0.0488,0.0483,0.0449,0.0451,0.0453,0.0428,0.0428,0.0427,0,0,0.0651,0.0639,0.0643,0.0635,0.0627,0.0615,0.0621,0.0605,0.0602,0.0599,0.0578,0.0571,0.0547,0.0532,0.0523,0.0547,0.0503,0.0544,0.0572,0.0541,0.0542,0.0543,0.0506,0.0503,0.0546,0.0546,0.0546,0,0.0666,0.0664,0.0647,0.0645,0.0646,0.0631,0.0639,0.0634,0.0619,0.0616,0.061,0.0581,0.0564,0.0561,0.0572,0.056,0.0529,0.0551,0.0548,0.0548,0.0548,0.0509,0.0505,0.0549,0.0548,0.0548,0.0548,0,0.0694,0.0691,0.0697,0.0683,0.0684,0.0692,0.0683,0.0682,0.0678,0.0667,0.0664,0.064,0.062,0.062,0.0604,0.0599,0.0574,0.056,0.0532,0.0554,0.0511,0.0506,0.0553,0.0552,0.0551,0.0551,0,0,0.0709,0.0713,0.0712,0.0709,0.0704,0.0704,0.0719,0.0714,0.0719,0.0709,0.0708,0.07,0.0682,0.067,0.065,0.0629,0.0608,0.0598,0.0595,0.0562,0.053,0.0495,0.0485,0.0591,0.059,0.059,0.0502,0,0.0724,0.0732,0.0733,0.0745,0.0744,0.074,0.0753,0.0753,0.0746,0.074,0.0726,0.0719,0.0704,0.0698,0.0676,0.0626,0.0595,0.0632,0.0512,0.0509,0.0475,0.0478,0.0588,0.0497,0.0496,0.0495,0.0494,0,0.0731,0.0733,0.0754,0.0759,0.0761,0.0776,0.078,0.0792,0.0788,0.0785,0.0775,0.0753,0.0734,0.0714,0.0637,0.066,0.0599,0.0556,0.0552,0.0491,0.0463,0.0469,0.0484,0.0484,0.0485,0.0486,0.0487,0,0.0723,0.0736,0.0754,0.0758,0.0773,0.0789,0.0802,0.0806,0.0824,0.0813,0.0813,0.078,0.0768,0.0696,0.0617,0.0622,0.0519,0.0511,0.0417,0.0413,0.0444,0.0444,0.0442,0.0442,0.0442,0.0442,0.0442,0,0.0713,0.0724,0.0756,0.0763,0.0794,0.0801,0.0836,0.0838,0.0856,0.0875,0.084,0.0837,0.0762,0.0697,0.0617,0.0501,0.0515,0.0416,0.0388,0.0473,0.0477,0.044,0.0441,0.0439,0.044,0.044,0.0441,0,0.0693,0.0717,0.0737,0.0771,0.0791,0.0814,0.0875,0.0904,0.0903,0.0924,0.0924,0.0883,0.0796,0.0698,0.0578,0.0502,0.0393,0.0343,0.0437,0.0416,0.0305,0.0311,0.0228,0.0226,0.0224,0.0223,0.0222,0,0.0688,0.0695,0.0745,0.0784,0.0807,0.0856,0.0907,0.0934,0.0965,0.095,0.0962,0.0884,0.0838,0.0648,0.0541,0.0364,0.0339,0.0273,0.0294,0.0302,0.0283,0.0291,0.0299,0.0219,0.0219,0.0218,0.0218,0,0.067,0.0691,0.0711,0.0791,0.0855,0.0931,0.0992,0.1009,0.1035,0.1025,0.0984,0.0881,0.0774,0.0642,0.0498,0.0376,0.0315,0.0255,0.0258,0.0277,0.029,0.0275,0.0284,0.0212,0.0213,0.0213,0.0214,0,0.0668,0.0676,0.0719,0.0791,0.089,0.0988,0.1014,0.1049,0.1074,0.1036,0.1023,0.0901,0.0839,0.0645,0.0519,0.0388,0.0354,0.0311,0.031,0.0315,0.0366,0.0398,0.0324,0,0,0,0,0,0.0658,0.0671,0.0726,0.0822,0.0934,0.1006,0.1073,0.1093,0.1092,0.1067,0.1042,0.0936,0.0736,0.0662,0.0524,0.0484,0.0332,0.0316,0.0283,0.0179,0.0186,0.0228,0,0,0,0,0,0,0.0646,0.069,0.0707,0.0851,0.0942,0.1077,0.1132,0.1136,0.1113,0.1076,0.0982,0.0902,0.0723,0.0828,0.0529,0.0487,0.0443,0.0221,0.0217,0.0175,0.0181,0.0187,0.0233,0,0,0,0,0]}]]